Location: *
(35.1500°N, 76.6700°W)
Time: 16:51:40
(UTC+00:00)

Cosmos 2084 - Pass Details

Date: 13 October 2019
Orbit: 554 x 628 km, 62.8° (Epoch: 12 November)

Event Time Altitude Azimuth Distance (km) Brightness Sun altitude
Rises 22:51:03 0° 199° (SSW) 2,897 7.4 -4.2°
Reaches altitude 10° 22:53:23 10° 194° (SSW) 1,992 6.5 -4.7°
Maximum altitude 22:57:46 52° 118° (ESE) 772 3.8 -5.6°
Drops below altitude 10° 23:02:08 10° 42° (NE) 1,980 5.7 -6.4°
Sets 23:04:26 0° 38° (NE) 2,878 6.6 -6.9°
